Theta_e
295 291 287 290 292 293 291 287 287 290 294 291 290 291 291 296 295 295 295 300 302 302 307 309 309 308 305 304 305 305 308 314 340 341 340 340 339 340 342 342 345 345 349 348
292 288 295 296 295 293 292 288 287 291 294 292 291 291 293 295 295 295 299 301 301 303 305 308 309 306 306 305 305 306 308 311 334 341 342 339 342 342 344 345 344 344 346 347
290 294 298 296 294 292 290 288 288 288 292 292 290 289 291 294 295 300 301 302 302 303 303 307 309 309 309 312 311 306 307 312 323 337 337 334 335 333 334 336 339 344 344 344
292 297 297 293 292 292 287 293 292 291 287 281 289 281 286 289 293 297 299 300 301 302 305 307 309 309 309 312 314 309 307 313 315 336 337 336 335 333 334 338 341 342 345 344
293 293 293 291 293 294 290 294 291 290 285 283 284 279 284 291 291 294 298 304 303 304 304 306 307 309 310 313 312 314 314 313 316 319 334 335 330 332 332 333 333 337 341 344
294 299 296 294 297 295 296 290 288 285 282 276 282 281 282 286 292 295 301 302 305 305 305 305 306 306 307 309 310 311 313 316 319 319 323 330 330 329 329 329 332 334 338 341
293 293 296 298 292 293 291 283 275 275 274 276 284 283 284 290 297 298 300 302 303 305 303 303 303 304 305 305 306 308 310 312 316 321 323 329 329 330 330 330 332 333 334 340
285 285 294 298 292 288 287 284 276 271 273 277 285 280 285 295 298 300 301 302 300 300 300 301 302 302 303 304 305 306 307 311 316 318 321 326 330 331 329 331 332 333 335 338
285 287 296 298 296 294 287 280 286 277 279 280 281 286 291 295 297 298 298 298 296 297 298 298 300 301 302 302 304 305 306 309 315 318 320 322 325 329 332 330 330 329 332 336
290 283 293 296 295 294 289 291 279 279 274 276 279 281 283 288 291 294 295 294 295 296 296 297 298 299 300 301 302 305 306 308 313 317 321 325 327 332 336 330 329 329 331 332
291 285 288 292 289 287 287 283 286 287 287 278 277 279 287 291 293 291 294 294 294 294 294 296 297 300 300 301 301 302 305 307 310 316 318 321 327 328 331 330 329 328 328 331
292 286 281 287 294 294 290 287 286 277 278 280 283 282 294 292 293 295 295 295 295 295 294 296 299 299 299 299 300 301 304 306 309 315 317 320 322 320 321 324 325 328 326 331
291 282 276 283 286 289 288 289 289 289 286 283 280 282 294 296 297 296 294 293 294 295 296 298 298 297 298 298 300 301 302 303 306 312 316 318 320 319 317 317 323 326 327 329
299 286 284 281 284 286 286 289 292 290 284 284 284 286 291 294 293 294 293 293 294 295 297 296 296 296 297 298 299 301 302 302 304 308 313 319 317 316 316 320 324 328 329 328
292 284 286 289 290 291 290 289 290 289 289 285 287 288 292 293 291 292 293 294 294 295 295 295 295 296 298 299 299 300 301 302 303 304 307 313 319 320 320 322 324 324 327 327
289 284 286 286 290 291 289 291 292 291 291 290 290 288 294 292 293 292 293 294 292 292 293 295 295 296 298 299 299 300 300 301 303 303 305 310 316 317 319 320 322 321 321 322
286 285 283 280 289 290 284 289 290 290 290 286 284 290 289 291 291 292 292 292 291 292 294 294 295 295 296 297 298 297 299 300 301 302 305 310 317 321 322 323 319 318 318 318
286 285 287 284 287 276 287 294 293 290 291 292 292 290 293 292 293 293 293 291 292 294 294 294 294 295 296 297 298 298 299 299 301 301 304 309 320 320 322 320 317 316 316 315
290 287 283 278 277 284 287 293 288 287 288 291 290 292 293 293 292 291 293 295 294 295 295 294 295 295 296 297 298 297 297 298 300 301 304 308 316 318 318 316 314 311 310 309
290 291 285 279 278 275 282 293 296 293 283 293 293 290 291 291 284 288 293 294 294 294 294 294 295 296 296 297 298 298 297 296 297 300 304 308 317 317 316 315 313 311 309 306
282 281 279 279 281 282 290 294 295 278 283 294 294 292 290 287 289 291 293 293 294 293 293 295 295 295 296 299 300 300 297 296 299 303 306 308 317 316 315 313 311 308 306 304
281 274 280 277 278 275 292 292 286 291 295 294 291 291 290 290 291 291 292 292 292 292 292 294 294 295 299 303 303 301 297 298 300 303 306 315 317 315 311 309 307 305 303 300
278 285 283 284 280 289 294 294 298 298 290 290 288 291 291 290 290 291 290 291 292 292 293 294 295 296 301 301 299 298 298 299 300 303 310 315 313 311 309 307 305 304 302 301
285 288 284 286 288 290 295 298 298 295 289 290 292 292 292 290 290 290 291 291 291 292 292 294 295 298 301 299 300 300 300 300 303 306 311 310 308 307 307 306 305 303 302 301
287 289 287 286 290 294 296 297 296 292 291 291 293 293 292 290 289 290 290 290 290 291 292 295 297 298 300 299 299 300 301 302 305 311 310 307 306 305 302 301 303 304 305 304
290 289 287 286 293 291 293 296 293 290 290 292 292 291 292 291 290 290 289 289 290 291 293 295 296 297 300 299 299 300 300 303 311 308 305 304 301 300 299 298 295 293 296 294
Wind_Speed
4 7 2 6 5 8 5 4 7 5 10 3 8 12 4 9 8 10 8 10 11 10 11 15 12 9 10 9 9 9 8 12 6 6 8 6 8 8 7 7 11 10 10 12
7 2 8 5 5 2 4 3 5 5 5 5 10 19 7 6 7 7 3 8 9 11 14 16 17 9 7 9 8 9 11 10 11 9 8 4 8 7 11 8 8 10 10 11
6 9 3 2 4 6 3 1 5 8 5 6 6 18 6 5 2 4 4 6 7 8 12 13 16 12 9 11 13 9 10 12 12 14 5 3 5 3 3 3 4 7 9 10
5 4 0 1 2 2 4 2 5 10 6 6 3 16 3 1 4 3 6 7 8 8 10 9 12 13 12 11 11 13 7 8 10 12 11 13 10 9 6 8 10 9 12 12
11 3 2 2 3 2 6 5 6 9 5 3 5 3 7 3 2 5 7 4 6 7 9 11 10 10 12 13 12 10 9 6 7 6 12 12 9 8 5 3 6 6 7 10
5 4 3 3 2 4 6 5 6 5 3 2 3 4 7 5 4 5 4 4 5 8 9 9 9 12 13 12 16 15 10 7 7 6 8 10 14 10 6 4 5 5 5 7
6 5 2 4 3 3 10 7 6 8 6 6 3 4 11 7 8 6 4 4 4 1 8 10 13 15 17 18 15 15 16 11 8 7 8 10 11 14 13 10 7 5 4 4
1 6 4 3 2 3 2 6 6 6 3 6 5 7 8 8 4 6 5 1 3 5 7 10 12 12 14 16 18 17 17 18 10 4 8 7 6 8 7 7 5 5 5 6
3 4 4 4 3 4 3 1 3 1 2 4 5 7 9 6 9 7 7 4 5 5 7 8 10 10 14 15 17 15 15 16 14 11 5 6 5 2 6 3 5 4 4 5
4 7 4 1 3 2 3 4 1 2 4 5 5 6 9 7 9 9 7 7 6 6 9 10 10 12 14 16 15 15 10 11 15 9 6 5 6 8 6 5 6 6 6 5
3 4 5 2 4 8 2 2 1 3 4 3 5 7 6 11 13 7 8 7 6 9 9 9 12 18 18 17 15 15 12 9 13 8 6 5 4 5 7 6 7 6 4 6
1 3 5 10 11 4 7 8 6 6 6 6 6 15 12 9 4 5 10 6 7 8 8 10 17 18 17 19 17 14 12 8 10 8 7 4 6 2 2 4 3 5 4 5
2 2 5 11 6 2 4 6 6 3 3 10 9 9 4 8 12 9 8 7 8 10 12 16 17 15 15 14 15 11 8 9 10 11 6 4 3 5 6 3 4 2 5 6
6 5 9 11 15 4 11 13 14 6 5 10 14 22 24 17 11 10 7 8 10 13 16 20 14 13 14 14 12 11 12 7 9 11 8 8 6 5 1 3 3 5 5 7
6 8 8 14 19 15 19 21 18 16 19 12 21 21 20 13 7 6 7 7 13 18 21 18 13 13 13 15 12 8 9 7 8 10 10 8 8 4 4 7 4 5 7 7
1 8 4 11 15 15 18 18 22 20 16 15 12 15 4 4 6 8 13 17 20 22 21 17 14 16 15 15 15 11 10 9 8 10 9 8 7 6 5 1 7 5 7 8
4 3 1 6 4 8 9 11 12 4 3 5 8 15 3 11 13 17 18 21 23 22 20 19 19 19 17 15 14 13 10 9 10 10 11 8 5 6 4 7 7 6 7 9
3 3 3 6 6 6 5 3 2 3 9 11 15 7 8 12 16 19 19 20 21 18 19 23 21 19 18 16 16 14 8 9 9 9 10 7 4 3 7 10 9 8 6 8
3 2 4 2 4 15 7 3 2 5 20 2 2 9 15 13 19 20 11 6 13 19 21 20 18 19 19 18 15 14 11 8 9 9 9 6 5 7 8 11 13 12 12 9
9 2 4 2 5 5 5 3 8 1 10 3 7 13 17 16 17 21 17 21 21 20 18 18 20 19 17 19 16 14 14 9 11 9 10 6 8 8 9 7 8 9 15 10
7 5 3 3 4 9 2 15 6 3 8 14 13 16 21 18 15 22 24 21 19 19 20 19 18 17 19 18 16 15 14 11 12 8 9 5 7 7 9 7 10 13 13 15
3 0 2 3 4 9 3 17 2 7 15 11 14 17 19 22 23 22 20 20 20 21 20 18 15 16 16 15 12 13 14 12 10 8 6 6 8 8 10 13 12 14 12 17
4 6 3 6 8 12 21 14 11 10 7 11 12 19 19 21 22 20 19 19 18 20 18 17 16 18 17 9 10 12 11 10 9 8 6 8 9 10 12 13 13 13 12 13
5 2 4 3 6 11 13 13 14 5 8 14 16 18 19 20 19 20 18 18 16 17 16 16 18 17 14 5 6 8 8 8 8 10 9 10 12 11 10 9 8 11 11 11
6 4 7 9 14 12 14 12 10 8 11 15 14 17 16 18 19 19 18 18 16 17 16 16 15 14 10 4 5 5 6 6 8 10 10 11 11 12 11 9 7 9 8 9
4 6 3 7 13 18 15 13 9 10 15 15 18 17 17 18 19 18 16 15 15 16 16 16 14 13 5 4 5 5 5 5 11 12 11 11 11 10 10 11 12 24 18 18
Wind_Direction
348 49 293 246 209 226 253 228 247 267 261 281 239 269 264 252 292 300 323 331 325 310 295 304 297 289 298 270 251 229 219 214 198 182 177 182 194 193 188 207 213 194 194 199
15 266 236 248 277 260 282 285 313 303 355 317 291 284 266 214 231 256 349 328 323 317 327 326 334 324 334 287 272 249 221 224 192 200 193 168 182 198 200 195 199 194 192 198
162 245 309 315 3 24 329 124 292 269 302 262 284 279 283 265 346 338 339 288 300 305 314 325 326 325 332 351 338 276 232 219 208 202 151 95 85 65 121 199 195 202 201 202
218 287 266 342 131 100 316 283 319 306 327 278 158 289 217 329 319 299 314 325 329 325 325 329 322 333 332 348 350 342 281 233 221 199 185 190 187 188 194 197 207 205 200 202
245 280 296 156 217 220 238 330 262 286 253 335 286 1 265 351 317 306 300 315 321 341 312 315 322 322 341 356 356 358 349 312 285 234 215 189 192 200 194 174 184 184 205 210
255 280 82 180 275 111 265 341 350 43 85 7 262 101 269 276 233 290 294 67 12 334 308 321 320 348 354 359 360 353 356 344 308 245 229 244 191 191 178 175 196 210 196 205
330 312 102 39 4 355 38 42 333 348 2 232 262 319 242 264 253 236 287 38 46 350 313 339 353 352 352 352 353 349 344 331 342 271 230 222 238 198 195 189 197 195 183 193
130 317 331 352 151 270 279 148 160 255 232 266 313 241 255 227 273 289 260 88 31 341 339 342 342 346 349 345 342 339 342 333 327 305 256 235 215 253 195 179 179 182 203 202
317 261 278 304 148 118 274 164 189 190 251 273 242 283 315 271 289 290 338 358 327 328 320 310 321 338 341 337 330 330 330 331 318 321 295 230 190 214 288 135 140 204 211 213
250 288 253 239 22 12 138 181 47 12 287 255 267 265 245 296 279 279 290 287 306 314 325 325 331 330 326 320 319 316 319 315 309 303 333 277 193 172 193 197 186 205 228 221
119 137 271 259 215 221 321 314 129 135 218 279 289 257 218 286 294 273 274 249 288 294 293 301 314 328 319 311 308 304 304 312 311 294 290 318 263 202 144 194 185 206 207 208
273 182 255 247 258 260 181 203 174 127 264 230 268 274 252 250 258 299 286 297 289 275 284 302 324 316 311 305 303 297 296 309 314 285 287 193 203 115 157 160 154 168 204 224
236 299 336 314 353 5 187 193 208 177 159 237 266 272 242 281 296 257 250 272 291 294 299 308 312 304 302 303 305 294 300 308 314 314 298 262 285 72 244 195 115 149 131 231
166 198 191 249 260 227 271 261 268 229 238 272 256 279 284 286 280 284 311 318 301 296 303 307 307 294 296 299 302 304 304 296 304 323 310 290 208 190 248 127 99 127 190 176
158 232 197 250 260 271 267 277 275 255 255 255 274 277 281 294 292 291 282 285 289 292 301 304 297 294 301 299 298 302 299 312 314 309 317 285 278 229 232 126 101 127 163 173
203 275 233 275 267 256 262 267 267 271 271 261 272 280 316 322 297 296 304 306 305 302 302 298 294 301 301 298 296 301 300 303 307 311 294 288 277 269 250 239 139 140 128 129
208 220 56 263 331 319 285 253 256 263 270 195 279 283 4 324 313 310 314 310 301 296 296 299 304 304 299 296 298 294 293 295 298 296 301 294 273 245 181 126 125 145 132 124
166 180 173 281 326 260 246 37 350 272 271 269 278 322 321 305 302 305 297 284 287 297 297 301 300 299 295 294 290 287 276 273 280 278 287 292 215 189 128 131 125 97 90 106
193 164 314 244 242 282 291 45 321 282 298 300 9 315 301 305 305 295 298 279 295 294 292 295 291 289 289 285 280 275 269 251 267 266 272 279 189 168 151 148 142 125 99 93
12 211 185 265 244 278 237 317 291 207 284 149 323 305 306 317 308 304 320 305 298 295 291 290 286 283 275 272 271 263 261 232 247 247 252 275 206 173 149 159 139 118 113 109
313 316 279 283 269 281 74 346 325 38 302 308 313 305 309 298 285 298 302 298 296 291 293 289 283 278 276 268 255 241 242 223 232 237 246 259 193 155 132 124 116 112 116 113
250 184 296 334 279 284 352 349 341 280 297 308 301 303 295 295 297 296 298 296 297 299 299 295 288 284 279 270 249 234 219 216 214 228 218 211 167 139 125 123 115 111 117 107
276 196 205 213 237 279 302 286 289 297 278 299 292 298 297 294 295 298 298 300 301 300 301 298 293 291 285 254 239 228 211 195 201 205 181 160 130 121 129 127 121 119 114 114
284 248 239 302 265 268 293 299 295 269 268 287 287 288 295 295 299 298 301 302 305 301 299 295 294 292 299 243 222 210 187 190 186 184 135 131 121 115 112 113 121 119 122 131
249 299 247 256 280 309 288 289 291 277 281 285 286 299 301 302 302 302 303 306 302 298 295 294 297 298 288 205 199 195 178 167 176 136 126 120 114 107 98 79 95 112 116 132
192 230 266 283 304 288 290 294 294 297 301 310 309 311 310 305 305 312 306 301 299 296 299 300 301 300 243 188 181 164 160 169 146 123 122 115 110 107 104 102 83 53 82 86